Skip Page Navigation
NASA JPL Caltech
NASA Logo - Jet Propulsion Laboratory + View the NASA Portal
+ Center for Near-Earth Object Studies
JPL Home Earth Solar System Stars & Galaxies Technology
JPL Solar System Dynamics
BODIES ORBITS EPHEMERIDES TOOLS PHYSICAL DATA DISCOVERY FAQ SITE MAP
JPL Small-Body Database Browser
Search: [ help ]  
37403 (2001 XV98)
Classification: Main-belt Asteroid          SPK-ID: 2037403
Ephemeris | Orbit Diagram | Orbital Elements | Mission Design | Physical Parameters | Discovery Circumstances | Close-Approach Data ]

[ hide orbit diagram ]

For accurate long-term ephemerides, please instead use our Horizons system.This orbit viewer was implemented using two-body methods, and hence should not be used for determining accurate long-term trajectories (over several years or decades) or planetary encounter circumstances.


[ revert to old Java-based viewer ]

Orbital Elements at Epoch 2459000.5 (2020-May-31.0) TDB
Reference: JPL 34 (heliocentric ecliptic J2000)
 Element Value Uncertainty (1-sigma)   Units 
e .2266123105551018 4.45e-08  
a 3.100360916402103 1.8519e-08 au
q 2.397780965581489 1.3771e-07 au
i 12.77676715702476 4.5009e-06 deg
node 90.29156567620596 2.0068e-05 deg
peri 300.2648618034958 2.1466e-05 deg
M 179.7570804864759 8.5774e-06 deg
tp 2458004.864639933283
(2017-Sep-08.36463993)
4.444e-05 TDB
period 1993.96167680296
5.46
1.7866e-05
4.891e-08
d
yr
n .1805450948170728 1.6177e-09 deg/d
Q 3.802940867222716 2.2716e-08 au
  Orbit Determination Parameters
   # obs. used (total)      1444  
   data-arc span      8072 days (22.10 yr)  
   first obs. used      1998-04-23  
   last obs. used      2020-05-29  
   planetary ephem.      DE431  
   SB-pert. ephem.      SB431-N16  
   condition code      0  
   norm. resid. RMS      .4947  
   source      ORB  
   producer      Otto Matic  
   solution date      2020-Nov-13 00:30:58  

Additional Information
 Earth MOID = 1.43415 au 
 Jupiter MOID = 1.7551 au 
 T_jup = 3.145 
[ show covariance matrix ]

Ephemeris | Orbit Diagram | Orbital Elements | Mission Design | Physical Parameters | Discovery Circumstances | Close-Approach Data ]

Physical Parameter Table
Parameter Symbol Value Units Sigma Reference Notes
absolute magnitude H 13.3   n/a MPO302281  
diameter diameter 12.498 km 0.111 urn:nasa:pds:neowise_diameters_albedos::2.0[mainbelt] (http://adsabs.harvard.edu/abs/2011ApJ...741...68M)  
geometric albedo albedo 0.065   0.005 urn:nasa:pds:neowise_diameters_albedos::2.0[mainbelt] (http://adsabs.harvard.edu/abs/2011ApJ...741...68M)  

37403 (2001 XV98)          Discovered 2001-Dec-10 by LINEAR at Socorro
Reference: 20020227/Numbers.arcLast Updated: 2004-04-19

[ hide close-approach data ]
Close-Approach Data   ...sorted by Date/Time (TDB)
Date/Time (TDB) Time Uncertainty
(days_HH:MM)
Body Nominal Distance (au) Minimum Distance (au) Maximum Distance (au) V-relative (km/s) V-infinity (km/s) JD (TDB) Time Uncertainty (minutes) Semi-major axis (km) Semi-minor axis (km) range-LOV angle (deg) N-sigma BP Orbit Ref. Reference Modified
1900-Jul-13 20:43 00:03 Jupiter 1.82108041255495 1.82107942452674 1.82108140060749 3.22683449082418 3.07932120445566 2415214.363019459 3.3517102935287 368.40908571919 15.1210029932165 85.4161132523794 2163075.42422224 T 34 CATAB v2.0f-lin.ifort 2020-Nov-13 00:31:01 2020-Nov-13 00:31
1910-Jul-26 12:16 00:04 Jupiter 1.88573423960201 1.88573321522968 1.88573526406202 1.42582329731537 1.06518747992681 2418879.010830884 3.59324027150902 1017.6844434371 162.603115583202 67.1880913841355 1484424.32109668 T 34 CATAB v2.0f-lin.ifort 2020-Nov-13 00:31:01 2020-Nov-13 00:31
1971-Dec-17 13:51 00:01 Jupiter 1.8434337682118 1.84343311817287 1.84343441825483 3.43955354299851 3.3032660919142 2441303.077318983 1.29005375603399 166.421483114574 12.8845195553144 81.7303392318504 2593856.45660174 T 34 CATAB v2.0f-lin.ifort 2020-Nov-13 00:31:01 2020-Nov-13 00:31
1982-Jan-17 20:09 00:01 Jupiter 1.84640575628081 1.84640519042803 1.84640632213495 1.77084929014752 1.48943770418832 2444987.339477431 1.12847811486063 354.740701851097 68.0098445081275 75.8199200767086 1612831.83809737 T 34 CATAB v2.0f-lin.ifort 2020-Nov-13 00:31:01 2020-Nov-13 00:31
2043-May-22 01:31 < 00:01 Jupiter 1.88205544704425 1.88205500116995 1.88205589291951 3.62067345538891 3.49416264529042 2467391.563305722 0.799195725419814 104.83732373946 12.934138572922 81.7925477720862 3138792.99392696 T 34 CATAB v2.0f-lin.ifort 2020-Nov-13 00:31:01 2020-Nov-13 00:31
2053-Jul-07 00:48 00:01 Jupiter 1.80744944406478 1.80744879309237 1.80745009503872 2.13598629787597 1.90399061185562 2471090.533557507 1.23207070392769 249.970727901812 41.9389515265109 78.8330808345422 1892160.37974737 T 34 CATAB v2.0f-lin.ifort 2020-Nov-13 00:31:01 2020-Nov-13 00:31
2114-Oct-26 03:33 00:03 Jupiter 1.92758338416324 1.92758203239268 1.92758473595078 3.76741215886512 3.64891085201043 2493480.648263849 2.84261956141783 305.864215234347 12.7165827349083 78.8507793417242 3226049.37682742 T 34 CATAB v2.0f-lin.ifort 2020-Nov-13 00:31:01 2020-Nov-13 00:31
2124-Dec-19 06:48 00:03 Jupiter 1.77316191394113 1.77316100285755 1.77316282502531 2.45468069934699 2.25168302212357 2497187.783658567 3.32396824110615 189.8301002692 83.7803375109644 -88.6155857235191 1250006.43174091 T 34 CATAB v2.0f-lin.ifort 2020-Nov-13 00:31:01 2020-Nov-13 00:31
2186-Mar-30 02:14 00:05 Jupiter 1.97591544146713 1.97591286378831 1.97591801918864 3.87731259262478 3.76513027848908 2519568.593096871 4.9304151154107 486.290121105578 13.0997887153974 76.0512714936837 3412858.80684681 T 34 CATAB v2.0f-lin.ifort 2020-Nov-13 00:31:01 2020-Nov-13 00:31
2196-May-28 16:13 00:05 Jupiter 1.74340237016687 1.74340147515481 1.74340326519319 2.72328696445919 2.53862222840417 2523281.175359643 5.29452618317591 369.214665415872 50.1273520364682 -80.0157218088772 1536509.44585591 T 34 CATAB v2.0f-lin.ifort 2020-Nov-13 00:31:01 2020-Nov-13 00:31

Alternate Designations
 2001 XV98 = 1998 HP103 
Ephemeris | Orbit Diagram | Orbital Elements | Mission Design | Physical Parameters | Discovery Circumstances | Close-Approach Data ]
ABOUT SSD CREDITS/AWARDS PRIVACY/COPYRIGHT GLOSSARY LINKS
FirstGov 2020-Nov-23 23:41 UT
(server date/time)  
NASA Home Page
Site Manager:   Ryan S. Park
Webmaster  Alan B. Chamberlin